Latest Weather Observations for Badgerys Creek

IDN60901

Issued at 8:15 pm EST Sunday 21 September 2014 (issued every 10 minutes, with the page automatically refreshed every 10 minutes)

About weather observations | Map of Sydney area stations | Latest observations for Sydney area | Other Formats
Station Details ID: 067108 Name: BADGERYS CREEK AWS Lat: -33.90 Lon: 150.73 Height: 81.2 m
Data from the previous 72 hours. | See also: Recent months at Badgerys Creek
Date/Time
EST
Tmp

°C
App
Tmp
°C
Dew
Point
°C
Rel
Hum
%
Delta-T

°C
Wind Press
QNH
hPa
Press
MSL
hPa
Rain
since
9 am
mm
Dir
 
Spd
km/h
Gust
km/h
Spd
kts
Gust
kts
21/08:00pm 12.4 11.4 8.9 79 1.7 S 4 4 2 2 1030.9 1030.8 0.0
21/07:30pm 12.8 11.7 8.5 75 2.1 S 4 4 2 2 1030.3 1030.2 0.0
21/07:00pm 13.5 12.8 8.4 71 2.5 SSE 2 4 1 2 1029.5 1029.5 0.0
21/06:30pm 14.0 12.0 8.6 70 2.7 SE 9 13 5 7 1028.7 1028.7 0.0
21/06:00pm 15.0 11.8 8.3 64 3.4 SE 15 22 8 12 1028.1 1028.1 0.0
21/05:30pm 15.9 12.4 8.6 62 3.7 ESE 17 24 9 13 1027.5 1027.5 0.0
21/05:00pm 17.0 13.1 8.7 58 4.3 ESE 19 26 10 14 1026.9 1026.9 0.0
21/04:30pm 18.2 14.1 8.7 54 4.9 E 20 28 11 15 1026.6 1026.6 0.0
21/04:00pm 19.9 17.4 8.3 47 6.0 E 11 20 6 11 1026.4 1026.4 0.0
21/03:30pm 20.6 19.0 6.5 40 7.1 NE 4 7 2 4 1026.5 1026.5 0.0
21/03:00pm 20.3 18.3 7.0 42 6.7 N 7 15 4 8 1026.5 1026.5 0.0
21/02:30pm 20.0 17.5 6.7 42 6.7 N 9 15 5 8 1026.9 1026.9 0.0
21/02:00pm 19.8 16.9 6.5 42 6.7 N 11 17 6 9 1027.1 1027.1 0.0
21/01:30pm 19.7 17.9 7.1 44 6.4 N 6 13 3 7 1027.6 1027.6 0.0
21/01:00pm 19.9 18.4 8.3 47 6.0 WNW 6 13 3 7 1028.2 1028.2 0.0
21/12:30pm 19.0 16.4 6.2 43 6.4 NNE 9 13 5 7 1028.8 1028.8 0.0
21/12:00pm 19.1 17.0 6.6 44 6.2 NNE 7 11 4 6 1029.3 1029.3 0.0
21/11:30am 18.2 15.9 5.8 44 6.1 WSW 7 15 4 8 1029.7 1029.7 0.0
21/11:00am 18.4 16.9 6.9 47 5.7 ENE 4 9 2 5 1030.3 1030.2 0.0
21/10:30am 17.7 15.8 6.9 49 5.4 E 6 11 3 6 1030.6 1030.5 0.0
21/10:00am 16.5 14.2 7.4 55 4.5 SE 9 15 5 8 1030.9 1030.8 0.0
21/09:30am 15.7 13.0 8.9 64 3.5 SSW 13 19 7 10 1030.9 1030.8 0.0
21/09:00am 14.4 11.5 8.1 66 3.1 SSW 13 17 7 9 1030.9 1030.8 0.0
21/08:30am 13.5 12.1 8.8 73 2.4 S 6 9 3 5 1030.6 1030.5 0.0
21/08:00am 12.5 10.6 9.0 79 1.7 SW 9 13 5 7 1030.0 1030.0 0.0
21/07:30am 10.0 7.9 8.3 89 0.8 SW 9 11 5 6 1029.7 1029.7 0.0
21/07:00am 8.3 6.3 7.2 93 0.5 SW 7 7 4 4 1029.2 1029.2 0.0
21/06:30am 8.1 5.6 6.7 91 0.6 SSW 9 11 5 6 1028.8 1028.8 0.0
21/06:00am 8.2 5.8 7.0 92 0.6 SW 9 11 5 6 1028.4 1028.4 0.0
21/05:30am 8.4 6.0 7.0 91 0.7 SW 9 11 5 6 1028.2 1028.2 0.0
21/05:00am 8.9 6.5 7.0 88 0.9 SW 9 13 5 7 1028.0 1028.0 0.0
21/04:30am 9.1 6.9 7.7 91 0.7 SW 9 11 5 6 1027.8 1027.8 0.0
21/04:00am 8.9 6.6 7.4 90 0.7 WSW 9 13 5 7 1027.6 1027.6 0.0
21/03:30am 9.1 6.5 7.7 91 0.7 WSW 11 13 6 7 1027.4 1027.4 0.0
21/03:00am 8.8 6.0 7.1 89 0.8 SW 11 13 6 7 1027.5 1027.5 0.0
21/02:30am 9.0 5.9 7.1 88 0.9 WSW 13 13 7 7 1027.8 1027.8 0.0
21/02:00am 9.4 6.7 7.5 88 0.9 WSW 11 13 6 7 1027.9 1027.9 0.0
21/01:30am 9.5 6.8 7.4 87 1.0 WSW 11 13 6 7 1028.2 1028.2 0.0
21/01:00am 9.9 7.3 7.8 87 1.0 WSW 11 13 6 7 1028.2 1028.2 0.0
21/12:30am 9.9 7.9 7.3 84 1.2 SW 7 9 4 5 1028.4 1028.4 0.0
21/12:00am 10.3 8.0 7.5 83 1.3 WSW 9 11 5 6 1028.4 1028.4 0.0
 
Date/Time
EST
Tmp

°C
App
Tmp
°C
Dew
Point
°C
Rel
Hum
%
Delta-T

°C
Wind Press
QNH
hPa
Press
MSL
hPa
Rain
since
9 am
mm
Dir
 
Spd
km/h
Gust
km/h
Spd
kts
Gust
kts
20/11:30pm 10.7 8.6 8.1 84 1.3 SW 9 11 5 6 1028.3 1028.3 0.0
20/11:00pm 10.4 8.3 8.2 86 1.1 WSW 9 11 5 6 1028.3 1028.3 0.0
20/10:30pm 10.1 8.4 8.2 88 0.9 SW 7 9 4 5 1028.3 1028.3 0.0
20/10:00pm 10.3 8.5 7.9 85 1.2 SW 7 9 4 5 1028.3 1028.3 0.0
20/09:30pm 11.0 9.3 8.2 83 1.4 SW 7 7 4 4 1028.2 1028.2 0.0
20/09:00pm 11.6 10.0 8.1 79 1.7 S 6 7 3 4 1028.1 1028.1 0.0
20/08:30pm 11.3 9.7 8.0 80 1.6 S 6 6 3 3 1027.7 1027.7 0.0
20/08:00pm 11.9 10.3 8.0 77 1.9 S 6 7 3 4 1027.3 1027.3 0.0
20/07:30pm 12.7 11.1 8.0 73 2.3 S 6 6 3 3 1027.0 1027.0 0.0
20/07:00pm 13.3 11.9 7.3 67 2.9 S 4 6 2 3 1026.7 1026.7 0.0
20/06:30pm 13.9 12.1 7.2 64 3.3 SSE 6 11 3 6 1026.1 1026.1 0.0
20/06:00pm 14.4 11.9 6.7 60 3.7 ESE 9 13 5 7 1025.7 1025.7 0.0
20/05:30pm 14.8 11.8 6.1 56 4.2 SE 11 19 6 10 1024.9 1024.9 0.0
20/05:00pm 15.8 12.1 6.3 53 4.6 SE 15 22 8 12 1024.3 1024.2 0.0
20/04:30pm 16.6 13.1 7.0 53 4.8 SE 15 24 8 13 1023.8 1023.7 0.0
20/04:00pm 16.9 13.0 7.0 52 4.9 SE 17 26 9 14 1023.5 1023.4 0.0
20/03:30pm 18.1 14.7 7.8 51 5.3 ESE 15 24 8 13 1023.0 1022.9 0.0
20/03:00pm 18.6 15.1 7.4 48 5.7 ESE 15 24 8 13 1022.9 1022.8 0.0
20/02:30pm 19.1 16.1 7.8 48 5.8 ESE 13 20 7 11 1022.8 1022.7 0.0
20/02:00pm 19.3 16.5 6.8 44 6.3 E 11 20 6 11 1022.8 1022.7 0.0
20/01:30pm 19.5 18.0 6.9 44 6.4 NNW 4 11 2 6 1023.1 1023.0 0.0
20/01:00pm 18.2 16.4 7.0 48 5.6 SE 6 11 3 6 1023.3 1023.2 0.0
20/12:30pm 19.6 18.5 8.6 49 5.8 E 4 7 2 4 1023.5 1023.4 0.0
20/12:00pm 17.1 14.6 6.6 50 5.2 SSE 9 19 5 10 1023.8 1023.7 0.0
20/11:30am 17.8 15.7 6.7 48 5.5 ESE 7 15 4 8 1024.0 1023.9 0.0
20/11:00am 16.9 14.5 7.0 52 4.9 SSE 9 15 5 8 1024.3 1024.2 0.0
20/10:30am 17.9 16.0 7.6 51 5.2 SSE 7 15 4 8 1024.5 1024.4 0.0
20/10:00am 16.9 14.4 6.7 51 5.0 S 9 17 5 9 1024.7 1024.7 0.0
20/09:30am 15.8 12.7 5.4 50 5.0 S 11 15 6 8 1024.8 1024.8 0.0
20/09:00am 15.2 12.7 4.9 50 4.8 S 7 13 4 7 1024.6 1024.5 0.0
20/08:30am 13.8 11.4 7.1 64 3.3 SW 9 13 5 7 1024.4 1024.3 0.0
20/08:00am 12.0 10.0 6.9 71 2.4 SW 7 11 4 6 1024.1 1024.0 0.0
20/07:30am 9.6 8.0 7.9 89 0.8 SW 6 9 3 5 1023.9 1023.8 0.0
20/07:00am 7.3 5.3 7.2 99 0.0 WSW 7 9 4 5 1023.6 1023.5 0.0
20/06:30am 4.9 2.6 4.9 100 0.0 WSW 6 7 3 4 1023.1 1023.0 0.0
20/06:00am 4.3 1.7 4.3 100 0.0 WSW 7 9 4 5 1022.6 1022.5 0.0
20/05:30am 4.0 1.3 3.9 99 0.0 SW 7 9 4 5 1022.1 1022.0 0.0
20/05:00am 4.5 2.5 4.4 99 0.0 SW 4 6 2 3 1021.6 1021.5 0.0
20/04:30am 4.6 2.2 4.5 99 0.0 SW 6 7 3 4 1021.3 1021.2 0.0
20/04:00am 4.4 2.0 4.3 99 0.0 SW 6 7 3 4 1021.0 1020.9 0.0
20/03:30am 4.9 3.0 4.8 99 0.0 SW 4 4 2 2 1020.9 1020.8 0.0
20/03:00am 5.1 3.2 5.0 99 0.0 SW 4 6 2 3 1021.0 1020.9 0.0
20/02:30am 5.4 3.2 5.3 99 0.0 SW 6 7 3 4 1021.1 1021.0 0.0
20/02:00am 5.7 3.4 5.6 99 0.0 SW 7 7 4 4 1021.4 1021.3 0.0
20/01:30am 5.7 3.5 5.4 98 0.1 WSW 6 7 3 4 1021.7 1021.6 0.0
20/01:00am 6.0 3.8 5.3 95 0.3 WSW 6 6 3 3 1021.9 1021.8 0.0
20/12:30am 6.6 4.9 5.7 94 0.4 WSW 4 6 2 3 1022.0 1021.9 0.0
20/12:00am 6.5 4.3 5.1 91 0.6 WSW 6 6 3 3 1022.0 1021.9 0.0
 
Date/Time
EST
Tmp

°C
App
Tmp
°C
Dew
Point
°C
Rel
Hum
%
Delta-T

°C
Wind Press
QNH
hPa
Press
MSL
hPa
Rain
since
9 am
mm
Dir
 
Spd
km/h
Gust
km/h
Spd
kts
Gust
kts
19/11:30pm 7.7 5.5 6.0 89 0.8 WSW 7 7 4 4 1022.1 1022.0 0.0
19/11:00pm 8.3 6.2 5.9 85 1.1 WSW 6 7 3 4 1022.2 1022.1 0.0
19/10:30pm 8.8 6.5 5.9 82 1.3 WSW 7 7 4 4 1022.4 1022.3 0.0
19/10:00pm 8.6 6.4 6.1 84 1.1 WSW 7 9 4 5 1022.4 1022.3 0.0
19/09:30pm 8.8 6.6 6.3 84 1.2 WSW 7 9 4 5 1022.3 1022.2 0.0
19/09:00pm 9.1 6.9 6.2 82 1.3 WSW 7 9 4 5 1022.1 1022.0 0.0
19/08:30pm 9.4 7.3 6.5 82 1.4 WSW 7 9 4 5 1021.9 1021.8 0.0
19/08:00pm 10.3 7.7 6.1 75 1.9 WSW 9 9 5 5 1021.7 1021.6 0.0
19/07:30pm 11.0 8.8 6.2 72 2.3 SW 7 9 4 5 1021.3 1021.2 0.0
19/07:00pm 12.1 10.0 5.9 66 2.9 S 6 9 3 5 1020.9 1020.8 0.0
19/06:30pm 12.9 10.3 6.3 64 3.1 SSE 9 11 5 6 1020.5 1020.4 0.0
19/06:00pm 13.9 10.6 6.5 61 3.6 SE 13 19 7 10 1019.9 1019.8 0.0
19/05:30pm 15.2 11.8 5.7 53 4.6 ESE 13 20 7 11 1019.3 1019.2 0.0
19/05:00pm 16.1 11.3 4.8 47 5.3 E 19 26 10 14 1018.7 1018.6 0.0
19/04:30pm 18.5 15.5 1.1 31 7.8 NNE 6 7 3 4 1018.2 1018.1 0.0
19/04:00pm 18.4 15.5 1.4 32 7.6 N 6 9 3 5 1018.0 1017.9 0.0
19/03:30pm 18.7 15.6 1.2 31 7.9 NNE 7 11 4 6 1018.0 1017.9 0.0
19/03:00pm 19.0 15.5 1.1 30 8.0 NE 9 15 5 8 1018.1 1018.0 0.0
19/02:30pm 20.1 17.5 1.0 28 8.6 SSE 4 9 2 5 1018.4 1018.3 0.0
19/02:00pm 18.9 15.0 -1.5 25 8.7 S 9 19 5 10 1018.5 1018.4 0.0
19/01:30pm 20.3 17.5 2.2 30 8.4 ESE 6 9 3 5 1018.9 1018.8 0.0
19/01:00pm 18.5 15.5 -1.9 25 8.6 SW 4 9 2 5 1019.4 1019.3 0.0
19/12:30pm 18.6 15.9 2.4 34 7.5 ESE 6 11 3 6 1019.8 1019.7 0.0
19/12:00pm 17.6 14.9 2.4 36 6.9 S 6 13 3 7 1020.4 1020.3 0.0
19/11:30am 16.7 13.6 1.6 36 6.7 S 7 17 4 9 1020.9 1020.8 0.0
19/11:00am 16.5 13.2 2.5 39 6.3 WSW 9 17 5 9 1021.5 1021.4 0.0
19/10:30am 16.7 14.6 3.7 42 6.0 WSW 4 7 2 4 1021.8 1021.7 0.0
19/10:00am 15.6 13.0 4.3 47 5.3 SSW 7 13 4 7 1022.2 1022.1 0.0
19/09:30am 14.4 11.6 5.0 53 4.4 WSW 9 15 5 8 1022.2 1022.1 0.0
19/09:00am 13.0 10.8 5.4 60 3.5 SW 6 9 3 5 1022.3 1022.2 0.0
19/08:30am 11.5 9.8 6.0 69 2.6 SW 4 7 2 4 1022.4 1022.3 0.0
19/08:00am 9.9 8.8 5.3 73 2.1 CALM 0 0 0 0 1022.5 1022.4 0.0
19/07:30am 7.6 6.6 5.6 87 0.9 CALM 0 0 0 0 1022.2 1022.1 0.0
19/07:00am 5.2 4.1 5.1 99 0.0 CALM 0 0 0 0 1022.2 1022.1 0.0
19/06:30am 3.6 1.4 3.5 99 0.0 WSW 4 6 2 3 1021.9 1021.8 0.0
19/06:00am 3.5 0.9 3.4 99 0.0 WSW 6 7 3 4 1021.7 1021.6 0.0
19/05:30am 3.6 1.4 3.3 98 0.1 WSW 4 6 2 3 1021.5 1021.4 0.0
19/05:00am 3.5 1.3 3.1 97 0.2 WSW 4 4 2 2 1021.3 1021.2 0.0
19/04:30am 4.1 1.3 3.4 95 0.3 SW 7 7 4 4 1021.0 1020.9 0.0
19/04:00am 4.7 2.2 3.7 93 0.4 WSW 6 7 3 4 1020.7 1020.6 0.0
19/03:30am 4.5 1.8 3.5 93 0.4 WSW 7 7 4 4 1020.5 1020.4 0.0
19/03:00am 4.2 1.6 3.0 92 0.5 SW 6 7 3 4 1020.5 1020.4 0.0
19/02:30am 5.1 2.4 3.9 92 0.5 WSW 7 9 4 5 1020.6 1020.5 0.0
19/02:00am 5.7 3.1 3.4 85 1.0 WSW 6 7 3 4 1020.9 1020.8 0.0
19/01:30am 5.8 3.1 3.5 85 1.0 WSW 7 9 4 5 1021.0 1020.9 0.0
19/01:00am 6.0 3.4 3.3 83 1.1 WSW 6 6 3 3 1021.1 1021.0 0.0
19/12:30am 6.5 4.4 3.8 83 1.2 W 4 4 2 2 1021.2 1021.1 0.0
19/12:00am 7.0 5.6 3.8 80 1.4 CALM 0 6 0 3 1021.3 1021.2 0.0
 
Date/Time
EST
Tmp

°C
App
Tmp
°C
Dew
Point
°C
Rel
Hum
%
Delta-T

°C
Wind Press
QNH
hPa
Press
MSL
hPa
Rain
since
9 am
mm
Dir
 
Spd
km/h
Gust
km/h
Spd
kts
Gust
kts
18/11:30pm 7.1 5.0 3.9 80 1.4 W 4 6 2 3 1021.4 1021.3 0.0
18/11:00pm 8.0 5.2 3.3 72 2.0 W 7 7 4 4 1021.5 1021.4 0.0
18/10:30pm 8.0 5.9 3.7 74 1.9 WSW 4 6 2 3 1021.4 1021.3 0.0
18/10:00pm 8.0 6.0 4.6 79 1.5 W 4 6 2 3 1021.5 1021.4 0.0
18/09:30pm 8.3 6.3 4.3 76 1.8 W 4 6 2 3 1021.5 1021.4 0.0
18/09:00pm 9.6 7.0 3.4 65 2.7 W 6 7 3 4 1021.5 1021.4 0.0
18/08:30pm 11.3 8.7 3.1 57 3.6 W 6 6 3 3 1021.4 1021.3 0.0

Latest Capital City Observations: Canberra | Sydney | Melbourne | Brisbane | Adelaide | Perth | Hobart | Darwin

Other Formats:

Comma delimited format used in spreadsheet applications
http://www.bom.gov.au/fwo/IDN60901/IDN60901.94752.axf

JavaScript Object Notation format (JSON) in row-major order
http://www.bom.gov.au/fwo/IDN60901/IDN60901.94752.json